Wind_Speed
10 10 10 10 9 8 8 7 6 6 5 5 5 5 5 5 4 4 4 4 4 4 4 4 4 4 3 3 3 2 2 2 2 2 2 2 3 3 4 4 4 4 4
12 11 11 11 10 10 9 8 8 8 7 7 6 6 6 6 5 5 5 5 5 5 6 6 6 5 5 4 4 4 4 4 3 3 3 3 3 4 4 4 5 5 5
13 13 12 12 12 11 11 10 10 9 9 9 8 8 7 8 7 7 7 6 7 7 7 7 7 7 7 6 6 5 5 5 5 4 4 4 4 4 5 5 5 5 6
15 14 14 13 13 13 13 12 12 11 11 10 10 9 9 9 9 9 8 8 9 9 9 9 8 9 9 8 7 7 7 7 6 6 5 5 5 5 5 5 6 6 6
17 16 15 15 15 15 15 14 14 13 13 12 12 11 11 11 11 11 10 10 10 11 10 10 10 10 10 10 9 9 8 8 8 8 7 7 7 7 6 6 6 6 6
19 19 18 17 16 16 17 16 16 16 15 14 14 13 13 13 12 12 12 12 11 12 12 12 12 11 11 11 11 10 10 9 9 9 9 9 9 8 8 8 8 7 7
20 20 20 19 18 18 18 18 18 18 17 17 16 15 15 15 14 14 14 13 13 13 13 13 13 13 12 12 12 12 11 11 10 11 11 11 11 10 10 10 9 9 9
23 22 22 21 20 20 20 20 20 20 19 19 18 17 17 16 16 15 15 15 14 14 14 14 14 14 14 14 14 13 13 13 12 12 12 12 12 12 12 12 11 11 11
25 24 24 22 22 22 22 22 22 21 21 21 20 19 19 18 17 17 17 17 16 16 15 15 15 15 15 15 15 15 14 14 14 14 14 13 13 13 13 14 13 13 13
27 26 25 24 24 24 24 24 23 23 23 22 22 21 20 20 19 19 19 18 18 17 17 16 17 17 17 17 17 17 16 16 15 15 15 15 15 15 15 15 15 15 15
27 27 27 26 26 25 25 25 25 25 25 24 23 23 22 22 21 21 21 20 20 19 19 19 18 18 19 19 19 18 18 17 17 17 17 16 17 17 17 17 17 17 17
29 28 28 28 27 27 27 27 27 27 26 26 25 25 25 24 24 23 23 22 22 22 21 21 21 20 21 21 20 20 19 19 19 19 19 19 19 19 19 19 19 19 19
31 30 29 29 29 28 28 28 28 29 28 28 27 27 26 26 26 25 25 24 24 24 23 23 23 23 22 22 22 22 22 21 21 21 21 21 21 21 22 22 22 21 21
33 32 31 31 30 30 30 30 29 30 29 30 29 29 28 28 28 27 27 26 25 25 25 25 25 25 24 24 24 24 24 24 24 24 24 24 23 23 24 24 24 24 23
34 33 32 32 32 32 31 31 31 31 31 31 31 30 30 30 29 28 28 28 27 27 27 27 26 26 26 26 26 26 26 26 26 26 26 26 26 26 26 26 27 27 27
34 34 33 33 33 34 33 33 32 32 32 32 32 32 32 31 31 29 29 30 30 29 29 29 29 28 28 28 28 28 28 29 29 28 28 29 29 28 28 29 29 29 29
36 36 35 34 34 34 34 34 34 34 34 34 34 33 33 32 32 32 31 32 32 31 31 31 31 31 31 30 30 30 30 30 31 31 31 31 31 31 31 31 31 32 32
37 38 38 36 35 35 34 34 34 35 35 35 35 35 34 34 34 33 33 33 33 33 33 33 33 33 33 33 33 32 32 33 33 33 33 33 33 33 33 33 34 34 35
38 39 39 37 37 36 35 34 35 35 35 35 35 35 35 35 34 34 34 34 34 34 34 35 34 34 34 34 35 35 35 35 35 35 35 36 36 36 36 36 36 36 37
39 39 39 38 38 38 37 37 35 36 36 36 36 36 36 36 36 36 36 36 35 35 35 35 36 36 36 37 37 37 37 36 37 37 37 38 38 38 38 39 39 39 39
39 39 39 39 39 38 38 38 37 37 37 37 37 38 38 38 38 37 38 38 37 37 36 37 37 37 38 38 39 39 39 38 39 39 40 40 40 41 40 41 40 40 40
40 40 41 41 41 40 40 38 38 38 38 38 38 38 40 40 39 39 38 38 38 38 38 38 38 39 39 40 40 40 40 40 40 40 41 42 42 42 42 41 41 41 41
40 41 42 42 43 42 42 40 39 38 39 39 39 39 40 40 40 41 41 40 40 40 39 40 40 41 41 41 42 42 41 41 41 41 42 42 43 43 43 43 42 42 41
37 39 42 43 44 44 43 42 41 40 40 40 40 40 40 41 41 42 42 42 41 41 41 41 42 42 42 43 43 43 43 43 43 42 43 43 44 43 43 43 43 43 43
37 38 41 42 43 44 43 43 42 41 41 40 41 41 42 42 42 42 43 43 43 43 42 42 43 43 43 44 44 44 44 44 45 44 44 44 44 44 43 43 44 44 43
37 39 40 40 42 43 43 42 42 42 42 42 42 42 42 43 43 44 44 44 45 44 43 43 44 44 44 45 45 46 46 46 46 46 45 45 45 45 44 45 45 45 45
Wind_Direction
235 236 236 235 235 233 232 233 235 239 240 245 253 254 252 256 257 256 258 259 260 261 249 239 240 241 241 249 260 272 286 300 314 324 332 339 345 350 351 350 349 349 351
238 236 235 235 235 234 233 236 240 241 244 247 252 258 260 256 257 257 257 258 262 264 261 255 252 247 250 252 262 270 275 286 294 304 309 312 319 323 327 329 330 330 333
239 236 235 234 236 238 235 239 242 244 246 249 253 258 264 261 256 256 256 258 263 264 263 259 256 251 252 254 259 265 271 278 283 291 298 301 305 305 310 317 321 320 319
240 237 234 235 238 240 238 240 243 246 248 251 254 260 263 265 263 263 263 264 266 266 264 260 256 254 253 254 258 263 269 274 279 282 290 296 297 296 299 305 311 314 313
241 238 235 236 239 240 239 241 243 246 249 251 253 258 262 264 266 265 265 267 267 267 267 263 258 257 256 257 261 264 269 272 278 283 285 288 291 291 295 300 304 308 308
241 240 238 238 241 241 241 241 243 246 248 251 253 256 260 264 265 264 264 266 267 268 268 265 260 258 259 260 262 264 268 272 277 281 285 284 286 286 290 294 296 299 302
242 242 241 241 242 242 242 242 244 246 249 251 253 255 258 262 265 263 262 265 266 268 267 264 262 260 261 262 262 264 266 270 276 279 281 283 283 284 286 288 290 293 296
243 243 243 242 243 243 243 244 245 247 249 252 254 255 257 260 262 262 261 263 265 266 265 263 262 260 260 262 263 266 267 270 272 275 278 279 280 281 281 282 285 288 291
242 243 243 243 244 245 246 246 246 248 249 250 253 255 257 259 260 261 262 263 265 266 265 263 261 261 260 260 262 265 267 269 271 274 275 277 279 279 280 280 282 285 288
242 242 243 244 246 247 247 247 247 248 248 249 252 254 256 257 258 260 261 263 264 265 265 263 262 261 260 260 262 264 266 268 270 272 273 275 277 279 280 280 281 282 285
242 242 243 244 246 248 249 249 249 249 249 249 252 253 254 256 258 260 262 263 264 264 264 264 264 262 262 262 262 264 266 267 269 271 272 274 276 278 278 279 280 281 283
242 243 244 245 247 249 250 249 249 250 250 251 253 253 254 256 258 260 261 262 264 265 264 263 263 264 263 263 262 263 265 267 269 271 273 274 275 276 278 279 281 282 283
242 244 244 245 247 249 251 251 251 251 251 252 253 253 254 256 259 260 262 263 264 264 263 263 263 264 264 263 262 263 264 267 269 270 271 272 274 275 276 278 280 281 281
243 243 245 246 247 248 250 251 252 252 252 252 251 252 254 256 258 259 261 263 264 263 263 262 262 263 263 263 262 263 265 267 268 269 270 271 273 275 275 277 279 280 280
242 243 245 247 248 249 250 251 252 252 253 253 252 253 254 255 257 258 261 263 264 264 264 262 262 262 263 263 263 263 265 267 269 270 270 272 273 274 275 277 277 278 279
243 243 245 247 249 251 252 253 253 253 254 254 253 253 255 256 256 258 259 262 264 264 263 263 261 262 263 265 265 265 266 268 269 270 271 272 273 274 275 276 277 278 278
244 244 244 245 248 250 253 253 253 254 254 254 253 254 255 257 258 258 260 262 263 265 265 264 263 263 263 264 266 266 268 269 270 270 270 272 273 274 275 275 276 278 278
244 245 244 245 247 250 252 253 253 254 255 255 254 254 255 256 257 258 259 260 262 264 264 264 264 264 264 265 265 267 268 269 270 270 270 271 272 273 275 275 276 278 278
244 244 244 245 247 249 252 253 254 254 255 255 254 254 255 257 257 259 260 260 262 264 265 265 265 265 265 265 266 267 268 270 270 270 271 271 272 274 275 276 277 278 279
244 244 244 244 246 249 251 252 254 255 256 256 255 254 254 256 258 259 261 262 264 265 265 265 265 266 266 266 267 268 269 271 271 271 271 272 273 275 276 277 278 279 280
243 244 244 246 247 249 251 251 252 254 255 256 256 255 255 256 257 259 262 264 265 266 266 266 266 266 267 267 267 268 269 271 271 272 272 273 274 275 276 278 279 279 280
244 244 245 247 247 247 248 250 252 253 255 256 257 256 256 256 258 259 263 265 265 266 267 266 266 267 268 268 269 269 270 270 271 272 272 273 273 274 275 277 278 278 277
243 244 244 246 247 247 248 250 252 253 255 256 257 258 258 257 258 259 261 263 265 266 267 267 267 267 267 268 269 270 271 271 270 271 271 271 271 273 274 274 276 277 278
245 246 246 246 247 247 248 250 252 253 256 258 259 259 259 259 258 259 261 262 264 266 267 266 266 267 267 269 270 270 271 272 272 271 271 272 272 273 273 274 275 277 277
248 248 247 246 246 247 248 250 252 254 257 259 260 261 261 260 259 259 261 262 264 265 266 266 266 267 268 269 270 270 271 272 274 275 275 275 274 273 273 275 278 277 277
250 250 248 247 246 246 248 250 253 255 256 258 260 261 261 261 261 261 261 262 263 264 265 266 268 268 269 270 270 271 272 273 275 276 276 275 274 273 274 275 277 277 276
Height
5859 5860 5860 5861 5862 5862 5863 5864 5865 5865 5866 5866 5867 5867 5867 5867 5867 5867 5867 5867 5867 5867 5867 5866 5866 5866 5866 5866 5866 5866 5865 5865 5864 5863 5862 5862 5861 5861 5860 5859 5859 5858 5857
5857 5858 5859 5860 5860 5861 5862 5863 5864 5864 5865 5865 5866 5866 5866 5866 5866 5866 5866 5866 5866 5866 5866 5866 5866 5866 5865 5865 5865 5865 5865 5864 5864 5863 5862 5861 5861 5860 5859 5859 5858 5858 5857
5855 5856 5857 5858 5859 5860 5860 5861 5862 5863 5864 5864 5865 5865 5865 5865 5865 5865 5865 5865 5865 5865 5865 5865 5865 5865 5865 5865 5864 5864 5864 5863 5863 5862 5861 5861 5860 5859 5859 5858 5857 5857 5856
5852 5853 5855 5856 5857 5858 5859 5860 5861 5861 5862 5862 5863 5863 5864 5864 5864 5864 5864 5864 5864 5864 5864 5864 5864 5864 5863 5863 5863 5863 5862 5862 5862 5861 5860 5860 5859 5858 5858 5857 5856 5856 5855
5849 5850 5852 5853 5854 5855 5856 5858 5859 5859 5860 5861 5861 5862 5862 5862 5862 5862 5862 5862 5862 5862 5862 5862 5862 5862 5862 5862 5862 5861 5861 5861 5860 5860 5859 5859 5858 5857 5857 5856 5855 5855 5854
5845 5847 5848 5850 5851 5852 5854 5855 5856 5857 5858 5859 5859 5860 5860 5860 5860 5860 5860 5860 5860 5860 5860 5860 5860 5860 5860 5860 5860 5859 5859 5859 5858 5858 5858 5857 5857 5856 5855 5855 5854 5853 5852
5841 5843 5845 5846 5848 5849 5850 5852 5853 5854 5855 5856 5856 5857 5857 5857 5857 5857 5857 5857 5857 5857 5857 5857 5857 5857 5858 5858 5858 5857 5857 5857 5856 5856 5856 5855 5855 5854 5853 5853 5852 5851 5851
5837 5839 5840 5842 5844 5845 5846 5848 5849 5850 5851 5852 5853 5854 5854 5854 5854 5854 5854 5854 5854 5854 5854 5854 5854 5854 5855 5855 5855 5855 5855 5855 5854 5854 5853 5853 5852 5852 5851 5851 5850 5849 5849
5833 5834 5836 5838 5839 5841 5842 5843 5845 5846 5847 5848 5849 5850 5850 5850 5851 5851 5851 5851 5851 5851 5851 5851 5851 5851 5852 5852 5852 5852 5852 5852 5852 5851 5851 5850 5850 5849 5848 5848 5847 5847 5846
5827 5829 5831 5833 5835 5836 5838 5839 5840 5841 5843 5844 5845 5845 5846 5846 5847 5847 5847 5847 5848 5847 5847 5848 5848 5848 5848 5848 5848 5848 5848 5848 5848 5848 5848 5847 5847 5846 5846 5845 5844 5844 5843
5822 5824 5826 5828 5829 5831 5832 5834 5835 5836 5838 5839 5840 5841 5841 5842 5843 5843 5843 5843 5844 5844 5844 5844 5844 5844 5844 5844 5844 5844 5844 5845 5845 5844 5844 5844 5843 5843 5842 5841 5841 5840 5839
5816 5818 5820 5822 5824 5825 5827 5828 5830 5831 5832 5834 5835 5836 5836 5837 5838 5838 5839 5839 5839 5839 5839 5839 5840 5840 5840 5840 5840 5840 5840 5840 5840 5840 5840 5840 5839 5839 5838 5838 5837 5836 5835
5809 5812 5814 5816 5818 5820 5821 5822 5824 5825 5827 5828 5829 5830 5831 5832 5832 5833 5834 5834 5834 5834 5834 5835 5835 5835 5835 5835 5835 5835 5836 5836 5836 5836 5835 5835 5834 5834 5833 5833 5832 5831 5831
5803 5805 5807 5810 5812 5813 5815 5816 5818 5819 5820 5821 5823 5824 5825 5826 5827 5827 5828 5828 5828 5829 5829 5829 5830 5830 5830 5830 5830 5830 5831 5831 5831 5830 5830 5830 5829 5829 5828 5827 5827 5826 5825
5795 5798 5801 5803 5805 5806 5808 5810 5811 5812 5814 5815 5816 5817 5818 5819 5820 5821 5822 5822 5822 5822 5823 5823 5824 5824 5824 5825 5825 5825 5825 5825 5825 5825 5824 5824 5824 5823 5822 5822 5821 5820 5819
5788 5791 5793 5796 5798 5799 5801 5803 5804 5805 5806 5807 5808 5810 5811 5812 5813 5814 5814 5815 5815 5815 5816 5816 5817 5817 5818 5818 5819 5819 5819 5819 5819 5818 5818 5818 5817 5817 5816 5815 5814 5813 5812
5780 5783 5786 5788 5791 5793 5794 5795 5797 5798 5799 5800 5801 5803 5804 5805 5806 5807 5807 5808 5808 5808 5808 5809 5809 5810 5811 5811 5812 5812 5812 5812 5812 5811 5811 5811 5810 5809 5808 5807 5807 5806 5805
5771 5774 5778 5780 5783 5785 5787 5788 5789 5790 5791 5792 5794 5795 5796 5797 5798 5799 5800 5800 5800 5800 5800 5801 5801 5802 5803 5804 5804 5804 5804 5804 5804 5803 5803 5803 5802 5801 5800 5799 5799 5798 5797
5763 5766 5769 5772 5775 5777 5779 5780 5781 5782 5783 5784 5786 5787 5788 5789 5790 5791 5792 5792 5792 5792 5792 5792 5793 5794 5795 5795 5796 5796 5796 5796 5795 5795 5795 5794 5793 5792 5792 5791 5790 5789 5788
5754 5757 5760 5763 5766 5768 5770 5772 5773 5774 5775 5776 5778 5779 5780 5781 5782 5783 5783 5784 5784 5784 5784 5784 5785 5785 5786 5786 5787 5787 5787 5787 5786 5786 5786 5785 5784 5783 5782 5781 5780 5779 5778
5745 5748 5751 5754 5757 5759 5761 5763 5764 5766 5767 5768 5769 5770 5772 5772 5773 5774 5775 5775 5775 5775 5775 5775 5775 5776 5776 5777 5777 5778 5778 5777 5777 5777 5776 5775 5775 5774 5773 5771 5770 5769 5767
5736 5739 5742 5745 5748 5750 5752 5754 5756 5757 5758 5759 5760 5761 5762 5763 5764 5765 5765 5765 5765 5766 5766 5765 5766 5766 5767 5766 5767 5767 5768 5768 5768 5767 5766 5765 5764 5763 5762 5761 5760 5759 5758
5725 5729 5733 5735 5738 5740 5742 5745 5746 5747 5749 5750 5751 5752 5753 5753 5755 5755 5756 5756 5756 5756 5756 5756 5756 5757 5757 5756 5756 5756 5756 5757 5757 5757 5756 5755 5754 5753 5752 5751 5750 5749 5747
5716 5719 5722 5725 5728 5730 5732 5735 5737 5739 5740 5741 5742 5742 5743 5744 5744 5745 5746 5746 5746 5746 5746 5746 5746 5746 5746 5746 5745 5745 5745 5744 5745 5746 5746 5744 5743 5742 5741 5740 5739 5738 5737
5707 5709 5712 5714 5718 5720 5722 5725 5727 5729 5730 5731 5732 5733 5733 5734 5734 5735 5735 5735 5736 5736 5735 5735 5735 5735 5735 5735 5735 5734 5734 5733 5732 5733 5734 5733 5732 5731 5730 5729 5728 5727 5726
5698 5700 5702 5704 5707 5710 5712 5715 5717 5718 5720 5721 5721 5722 5722 5723 5724 5724 5724 5724 5724 5724 5724 5724 5724 5724 5724 5724 5723 5723 5722 5722 5722 5720 5721 5721 5721 5720 5719 5718 5717 5715 5714